RH
39 39 40 40 39 37 35 35 35 34 30 28 26 26 24 21 20 20 20 21 21 20 19 19 18 16 15 14 14 13 12 11 9 8 8 10 10 11 12 12 12 12 12 12 11 12 11 10 9 8 8 9 10 11 13 12 13 16 22 25 26 27 25 21 20 18 16 14 13 12 11 12 13 14 14 15 15 15 16 16 17 18 18 18 19 19 19 19
39 39 39 39 39 37 35 34 33 31 28 27 27 27 25 22 21 20 20 20 19 19 18 17 15 14 12 11 11 10 10 11 9 9 10 11 12 13 12 11 11 11 10 9 10 10 10 10 10 11 12 12 13 14 14 14 14 17 23 26 24 23 21 17 16 13 12 12 11 11 11 11 13 14 14 17 19 17 18 18 18 19 19 19 19 18 18 18
39 37 37 39 38 37 35 33 31 29 27 27 27 26 24 21 19 19 19 18 18 17 16 14 12 11 9 8 8 9 10 11 9 10 11 12 13 12 11 10 10 9 8 9 9 11 12 12 13 12 13 13 13 14 13 12 14 16 21 25 22 20 18 15 13 10 10 9 8 11 11 12 14 14 15 18 20 20 21 20 19 19 19 19 19 18 18 18
38 37 38 38 38 37 34 30 28 28 28 28 27 25 22 19 18 18 18 17 16 14 13 12 10 8 7 7 9 10 12 12 11 11 12 12 12 11 10 10 10 10 11 11 11 12 13 12 12 11 11 12 12 12 11 11 13 15 19 22 19 17 15 12 10 8 9 8 9 11 12 14 14 14 15 18 21 22 21 20 19 20 19 19 18 18 18 17
37 38 38 39 38 35 32 29 28 29 28 27 25 22 19 18 18 18 17 15 14 12 10 9 9 8 8 9 10 11 14 16 12 11 11 11 12 11 11 11 12 12 12 13 12 11 11 10 9 9 11 13 12 12 11 10 11 14 14 14 12 11 11 10 8 8 9 9 10 12 13 14 14 15 16 17 22 22 19 18 18 18 18 18 18 17 17 16
38 38 38 39 37 33 30 28 28 30 29 26 23 20 18 18 18 16 14 12 11 10 9 8 8 10 10 10 10 10 14 15 12 11 11 11 12 12 12 13 12 12 11 10 10 9 8 8 8 9 12 13 13 13 12 9 11 14 11 8 8 8 8 9 8 9 10 10 11 13 13 13 14 17 16 16 20 20 17 18 18 18 17 17 17 17 17 16
40 40 40 40 35 31 30 28 29 29 27 24 20 18 17 17 16 14 12 10 10 9 9 9 9 10 10 12 12 11 11 12 11 11 12 12 13 13 13 12 11 10 8 6 6 8 7 7 7 8 12 15 12 10 11 8 9 13 10 7 7 7 8 9 9 10 10 11 12 12 13 13 15 17 16 16 18 18 19 19 18 18 18 17 18 17 17 17
42 45 47 42 34 31 31 29 29 28 25 21 18 17 16 15 13 12 10 9 9 10 10 10 10 10 11 13 13 11 11 12 13 13 12 12 12 11 10 9 8 7 6 4 6 8 7 8 8 8 12 13 10 8 11 11 10 13 11 7 8 8 10 11 10 11 11 11 12 12 13 13 13 14 16 17 17 18 18 19 19 19 18 18 18 18 18 18
44 49 50 43 33 32 31 28 28 27 23 20 17 16 14 13 12 10 9 8 9 10 10 11 11 11 12 12 12 12 13 14 14 12 11 10 9 9 8 6 6 5 4 4 6 8 7 7 7 8 9 8 9 10 11 13 14 13 11 10 10 11 13 13 12 12 11 11 12 12 14 14 12 13 16 17 16 17 17 18 19 18 17 17 18 19 19 19
46 48 49 41 34 33 31 27 28 25 21 18 15 14 12 12 10 8 8 8 9 10 11 12 10 10 12 12 13 14 14 13 12 10 9 8 7 7 6 4 5 5 4 4 6 7 7 7 8 7 7 7 8 10 10 13 15 13 13 13 11 12 16 15 13 14 13 11 11 13 14 14 13 14 17 16 16 17 17 17 17 16 16 16 17 19 20 21
48 48 47 40 34 32 29 27 28 24 19 15 13 12 12 11 9 9 9 10 10 10 11 12 12 11 12 11 12 13 11 9 9 8 8 7 5 5 4 4 5 5 5 4 5 6 7 7 8 8 8 8 8 9 11 12 14 14 15 14 13 15 19 17 15 17 16 12 12 13 14 14 14 15 17 16 17 18 18 17 16 16 16 16 17 19 20 21
44 43 41 37 34 32 29 28 25 20 15 12 12 11 11 10 10 10 10 10 10 10 11 12 13 12 11 10 10 9 8 7 8 8 8 6 4 4 4 4 5 5 5 5 5 6 7 7 8 9 10 10 10 11 12 13 15 16 17 17 16 20 22 18 16 19 17 14 13 13 16 18 17 17 18 17 18 21 20 17 16 16 16 16 17 19 20 21
34 34 35 36 36 32 28 24 19 14 12 11 11 10 10 10 11 11 10 10 11 11 12 14 14 11 8 7 7 7 7 7 8 8 7 6 5 4 4 4 4 5 6 6 6 7 8 9 9 9 9 11 13 14 13 13 15 18 23 21 18 22 24 17 15 19 17 15 16 15 19 23 20 18 19 18 20 22 20 16 15 16 16 18 19 20 20 21
30 35 37 36 31 26 21 17 14 12 11 10 10 10 11 11 11 10 10 11 12 12 12 12 12 8 6 6 6 6 7 7 7 7 7 7 6 5 5 4 4 6 7 7 8 8 8 9 9 9 10 11 12 15 19 18 15 19 27 26 21 21 21 17 16 16 16 17 18 17 21 24 21 19 19 18 21 21 18 16 17 18 19 20 21 21 22 22
36 36 33 28 23 18 15 12 12 11 10 9 10 11 11 11 10 11 12 11 10 9 8 8 8 6 5 5 6 6 6 6 6 7 6 6 6 5 5 5 5 6 7 8 8 8 8 7 7 9 11 11 12 19 25 23 19 21 24 24 23 20 20 20 16 14 16 18 17 18 23 24 20 19 20 20 22 21 19 19 20 21 22 23 23 24 24 24
33 30 25 21 16 13 11 11 10 10 10 10 11 11 11 11 13 13 11 8 7 7 7 7 5 5 6 6 5 6 6 6 7 7 6 6 6 6 6 6 6 7 7 7 7 8 9 9 8 8 10 13 18 25 27 26 26 26 21 18 19 19 19 19 16 17 18 16 15 18 22 23 20 19 22 25 25 24 22 23 24 24 24 25 25 25 26 27
26 23 19 14 11 10 10 10 9 9 10 11 11 11 12 13 13 11 9 7 6 6 6 7 6 5 6 6 6 7 7 7 6 6 6 6 6 6 6 6 7 7 7 7 7 8 8 9 10 10 13 17 21 26 26 23 24 26 25 21 21 20 18 17 16 18 19 17 17 18 18 21 23 22 24 28 29 28 27 26 27 27 27 27 27 28 28 30
21 17 13 10 10 10 10 9 10 11 11 11 11 11 11 10 10 9 7 7 6 6 7 7 8 8 7 6 7 7 7 6 6 6 5 5 6 7 7 7 7 7 8 8 7 8 9 10 13 14 16 19 22 24 21 17 19 24 25 24 25 24 19 16 15 16 19 19 19 19 18 21 24 24 26 30 33 32 29 29 30 30 29 29 29 30 31 33
17 12 9 10 10 10 10 11 11 12 12 13 13 11 9 6 6 6 5 5 6 7 8 7 8 9 7 6 7 6 6 6 6 5 5 5 6 7 8 8 8 8 9 10 10 9 11 14 17 18 19 20 22 23 20 18 21 24 23 23 25 22 18 18 15 15 18 19 20 21 19 21 24 26 28 31 33 33 30 30 31 32 33 33 33 34 36 37
12 9 10 11 11 11 12 12 11 12 13 12 12 12 10 7 7 6 5 6 7 8 8 8 7 7 6 7 6 6 6 6 6 5 6 6 7 8 8 9 10 10 12 16 15 12 13 19 20 18 18 18 18 19 19 20 23 24 26 28 26 21 19 19 16 17 20 19 21 21 20 22 25 28 32 33 34 33 32 33 32 34 37 39 40 40 41 41
10 10 11 12 12 12 12 12 12 12 11 10 10 10 9 9 9 9 8 7 7 7 7 6 7 7 7 7 7 6 6 6 6 5 6 7 8 9 9 11 13 13 15 17 15 13 13 16 18 16 15 15 16 19 20 21 22 23 26 27 24 22 20 17 16 19 22 21 21 21 22 25 28 30 34 37 39 36 34 35 35 35 39 44 46 45 44 45
10 11 12 12 12 13 13 12 11 9 8 7 7 7 8 8 8 8 9 9 9 8 7 6 6 7 7 7 8 8 7 7 7 7 7 8 9 11 12 14 16 15 15 17 16 16 16 15 16 16 15 16 19 21 20 18 20 23 25 26 24 22 20 17 17 19 22 24 22 21 23 27 30 33 34 38 40 38 35 36 37 38 43 49 50 48 47 48
11 13 13 13 13 13 12 11 10 9 8 7 7 7 9 9 9 9 9 9 9 9 8 7 7 7 8 8 8 9 8 8 9 9 8 8 10 11 12 15 18 17 17 18 17 17 15 13 14 15 16 19 21 21 20 18 20 23 22 24 25 22 20 17 16 18 23 27 25 24 28 31 34 35 34 37 39 38 38 40 40 43 49 52 52 52 52 50
13 14 15 14 14 13 12 10 9 9 9 9 9 8 9 10 10 11 10 9 10 9 9 8 7 7 8 8 8 10 11 10 10 10 9 9 11 12 13 16 19 20 20 19 18 17 14 12 14 17 19 20 20 22 22 18 19 22 22 22 22 20 20 19 19 22 24 28 30 29 32 35 38 39 38 39 40 40 41 43 45 49 52 53 55 56 55 53
15 16 15 14 14 14 13 11 9 10 9 10 10 9 10 10 9 11 12 13 12 9 9 9 8 7 8 9 8 11 13 11 10 11 11 10 11 13 15 16 17 20 23 21 19 19 17 14 14 18 20 20 21 21 20 18 18 23 25 22 19 20 22 22 24 27 28 31 32 32 39 43 40 40 42 42 42 42 44 46 50 53 54 56 58 58 58 58
16 15 13 13 14 15 13 11 10 10 10 10 10 9 10 10 10 10 14 19 16 10 9 9 9 9 9 9 8 11 13 11 10 12 12 11 11 14 16 17 16 18 21 19 18 19 17 17 17 18 20 20 22 20 18 20 19 21 25 22 21 24 25 25 26 30 33 34 31 33 45 48 39 37 42 44 46 45 48 52 55 56 58 59 60 61 61 59
13 13 12 12 13 13 12 10 10 9 9 9 10 9 9 10 11 10 15 22 16 10 9 9 9 9 10 10 8 10 12 11 11 11 11 11 11 12 15 19 18 17 18 19 19 17 16 19 21 21 22 21 19 17 19 22 20 22 26 24 24 26 26 27 28 32 36 35 36 38 41 41 37 39 45 47 49 51 54 59 60 60 61 63 64 64 61 59
12 12 11 11 11 11 11 9 10 10 8 9 11 10 10 10 10 11 18 18 10 9 11 10 9 9 10 10 9 11 12 11 11 12 11 11 10 11 14 18 19 18 20 20 18 16 17 20 21 23 23 20 16 15 20 23 21 24 28 26 27 29 28 29 29 33 36 38 43 41 36 38 38 38 46 50 52 58 61 64 64 63 66 67 67 65 61 60
12 11 11 10 10 10 9 9 10 10 8 9 11 10 10 10 10 16 19 14 10 11 11 10 9 9 10 10 9 10 12 12 12 12 12 11 10 11 13 17 19 18 19 20 17 16 19 20 21 23 21 18 18 19 21 23 23 25 27 28 29 29 27 27 31 34 35 41 46 40 36 42 41 36 45 56 60 65 68 69 69 67 67 67 63 62 60 59
12 11 10 9 10 9 9 10 10 10 8 9 11 11 10 10 15 21 17 10 13 14 11 10 9 9 12 14 13 11 12 12 11 12 13 11 10 11 13 15 17 19 21 23 21 20 21 20 22 24 21 20 22 23 23 24 24 25 28 29 26 26 27 30 37 36 36 47 48 38 36 44 47 45 50 59 63 66 69 70 70 67 64 62 59 59 59 57
10 10 10 10 10 9 9 9 9 9 7 8 10 11 11 13 19 22 14 8 15 15 11 13 13 13 16 17 14 13 15 14 11 14 16 16 15 13 16 17 18 25 30 27 25 24 25 24 25 25 23 24 26 26 26 26 26 27 31 30 24 26 29 32 38 35 36 48 46 36 35 39 48 53 54 58 62 63 64 66 70 68 62 59 59 58 58 60
10 10 9 9 8 8 7 7 7 6 6 8 9 9 15 18 16 17 14 11 15 15 13 14 15 17 18 17 15 15 18 16 13 16 19 23 24 21 22 23 22 25 27 26 26 25 26 26 26 25 24 25 26 25 27 28 28 29 31 30 28 33 35 34 39 37 34 41 40 35 36 37 42 49 54 59 60 61 63 66 68 66 60 59 59 59 61 64
9 8 8 7 6 6 6 6 5 5 6 7 7 9 18 21 13 12 15 14 13 13 14 16 18 20 19 16 16 17 18 17 16 18 19 24 28 26 26 27 26 23 21 25 25 22 26 28 26 25 24 24 24 22 23 25 28 30 30 32 34 38 41 42 46 44 38 36 35 36 41 44 42 46 54 59 58 61 66 68 65 62 62 62 63 64 66 65
7 7 7 6 6 5 5 6 5 6 7 6 8 15 17 14 11 12 15 16 16 16 17 19 20 21 18 15 16 18 17 17 19 20 22 25 26 27 27 28 29 27 25 27 25 22 27 28 27 25 22 23 26 25 24 26 30 33 33 34 37 39 44 49 52 51 45 39 35 36 45 50 47 48 55 59 60 64 66 66 63 61 63 64 65 67 66 64
6 6 6 5 6 5 5 6 5 6 7 6 12 20 16 10 11 16 18 19 20 18 19 21 20 20 19 18 19 19 16 17 21 22 24 26 25 25 26 27 28 29 28 27 24 24 26 26 27 26 22 23 27 29 30 31 33 35 35 36 38 41 43 48 51 49 48 49 46 43 46 48 44 47 57 62 65 65 65 64 63 63 63 64 66 66 65 66
5 5 5 5 5 5 6 6 5 7 7 8 13 18 16 13 15 19 20 20 20 19 20 21 20 20 20 20 21 20 17 19 23 21 22 25 26 26 27 28 28 28 28 26 26 27 26 26 28 27 25 26 29 31 32 31 31 34 36 37 40 42 43 48 52 51 52 56 52 43 45 48 45 48 57 63 64 63 63 63 63 64 65 64 65 65 67 69
5 5 5 5 5 5 5 5 7 7 6 9 16 16 16 17 18 22 22 20 20 21 20 20 19 17 18 19 21 21 19 20 21 20 19 23 25 27 29 29 27 27 28 27 29 30 29 28 29 28 28 29 30 31 31 31 33 35 37 39 43 45 46 53 58 57 57 58 50 42 48 54 53 55 61 62 63 64 64 64 65 65 65 65 66 68 70 72
6 5 4 5 5 5 5 5 8 7 5 13 21 19 19 21 20 22 22 20 21 22 19 19 18 16 16 18 20 22 20 20 21 20 20 22 23 26 28 29 29 29 29 28 30 32 31 30 32 31 29 31 33 31 32 34 35 36 39 42 46 49 50 53 58 61 64 64 58 49 50 57 58 59 62 63 66 70 69 68 69 69 68 69 70 72 73 73
6 5 4 5 5 5 5 7 8 7 8 17 23 20 21 24 22 21 22 22 22 21 18 18 18 17 18 18 20 23 22 21 21 21 21 22 24 26 28 30 29 29 30 30 32 34 32 31 34 34 30 31 32 31 34 39 38 38 41 44 49 52 53 54 56 63 69 71 71 63 55 59 61 58 60 65 70 72 72 71 71 71 71 73 74 75 75 75
7 6 4 5 5 6 7 7 7 11 15 20 23 21 21 24 23 20 21 22 21 19 18 18 19 20 21 21 21 23 23 23 23 22 22 23 24 27 30 32 32 32 32 32 34 35 33 33 36 35 33 32 33 32 34 38 41 43 44 46 50 53 55 57 56 59 67 72 78 76 63 56 59 58 60 67 71 70 71 72 72 72 73 73 75 76 76 76
7 6 5 5 6 7 7 8 10 17 23 23 24 24 22 23 22 20 20 21 20 19 18 20 22 22 22 23 24 23 24 26 25 23 23 24 23 26 31 34 36 37 33 31 34 34 32 34 36 36 35 33 32 33 34 38 41 44 47 49 52 55 58 64 63 60 66 71 74 78 70 58 57 60 61 67 70 70 72 73 73 74 74 75 77 76 75 74
6 7 6 6 7 7 8 14 17 20 25 25 23 22 21 21 21 20 20 20 20 20 20 20 22 25 23 24 26 25 25 27 26 24 24 25 26 29 33 34 36 38 35 32 34 34 33 36 38 39 39 35 35 37 38 41 42 43 46 48 52 57 59 64 67 65 69 71 70 76 75 63 59 60 61 66 70 70 72 73 74 75 75 77 78 75 73 72
6 8 7 6 8 7 9 17 21 22 24 23 20 20 21 21 20 20 21 21 20 20 21 21 22 23 23 23 26 27 24 24 25 24 24 26 30 32 33 34 36 39 39 35 35 36 37 39 40 39 36 34 36 39 40 43 45 46 48 48 50 56 58 61 66 70 76 77 75 80 76 61 57 59 62 67 71 72 74 74 76 76 76 77 77 74 74 74
7 8 7 7 8 8 12 18 22 24 24 21 19 20 21 20 20 23 25 23 21 21 22 24 22 22 23 25 27 28 24 22 23 24 24 25 29 31 31 34 36 38 38 36 35 36 37 40 40 39 38 37 37 38 39 43 45 45 47 51 53 54 57 64 68 74 81 77 75 83 75 56 53 61 64 68 72 73 75 75 77 79 79 79 78 76 77 77
8 8 7 7 7 9 13 16 19 24 25 22 21 21 20 19 19 22 24 21 21 21 22 23 22 23 26 27 28 29 27 22 22 25 25 26 30 32 32 33 36 39 38 36 37 38 41 45 43 41 46 48 46 45 44 45 45 44 46 53 56 54 57 64 70 78 81 72 70 80 76 59 56 63 67 70 72 75 76 76 78 80 81 81 80 80 81 80
9 9 9 8 7 8 11 12 13 19 23 22 20 18 20 22 19 20 23 21 20 21 22 23 23 24 26 27 28 31 29 25 24 25 26 28 32 34 33 31 35 39 39 35 36 41 46 49 46 45 48 50 49 47 46 48 48 46 48 51 55 58 59 64 74 77 75 74 72 72 73 71 67 68 72 74 76 78 78 79 80 81 82 82 81 81 82 80
8 11 12 11 9 9 13 13 12 15 18 19 18 17 19 22 21 20 21 21 20 20 22 24 24 24 24 25 28 30 29 27 26 26 27 30 33 33 33 34 37 40 39 37 39 41 43 45 46 47 49 50 49 47 46 49 48 48 52 52 52 59 61 65 71 69 69 80 76 64 70 79 75 72 76 78 79 80 80 81 82 82 83 82 81 83 82 81
9 11 12 12 12 14 16 15 13 15 16 17 19 19 20 22 23 23 22 21 21 21 22 24 26 27 25 24 27 30 29 27 28 29 28 30 34 34 33 37 40 41 40 39 41 39 39 44 46 45 47 50 50 49 48 49 50 51 53 51 49 57 64 65 66 64 69 81 79 70 74 79 75 75 78 78 80 81 82 83 83 82 82 82 83 84 83 82
8 9 10 11 12 14 15 14 14 15 16 18 21 20 20 22 24 24 24 24 24 23 22 24 28 30 30 29 29 30 28 26 27 30 30 29 33 34 34 36 38 40 40 40 42 39 39 47 50 46 47 49 49 50 50 50 51 50 50 49 47 53 62 64 64 64 69 76 77 76 77 76 75 77 79 79 81 83 83 83 82 82 83 83 84 85 85 83
6 7 7 9 10 11 12 13 14 16 17 18 19 18 20 23 24 25 25 24 24 25 24 25 29 32 33 32 31 29 29 28 27 30 31 32 34 36 35 34 36 40 41 41 44 41 39 46 51 47 48 48 46 48 49 49 51 49 47 48 49 52 58 64 64 65 69 71 71 74 78 78 76 77 79 81 83 83 83 81 81 83 83 84 85 86 84 77
5 5 5 7 10 11 11 10 13 18 19 19 18 18 21 24 24 24 25 22 23 27 27 26 30 33 34 33 32 32 31 30 30 31 32 34 36 36 35 34 38 41 42 44 46 43 41 46 51 50 49 46 44 47 48 47 49 51 52 53 53 55 59 63 65 66 71 73 74 78 82 80 76 78 81 82 82 82 82 81 82 83 83 85 88 85 78 71
5 5 4 6 10 11 11 12 14 17 18 18 21 22 22 23 23 23 22 21 22 25 26 26 28 31 32 31 31 31 29 29 29 31 33 36 37 36 36 38 39 40 43 47 47 46 46 47 51 53 52 46 43 47 50 50 51 55 58 57 56 56 57 59 62 66 69 73 78 82 81 78 78 81 83 83 83 84 84 83 84 86 87 87 84 79 73 70